Change the Weather History Date:

Saturday, July 19, 2014

  Actual Average Record
Temperature  
Mean Temperature 66 °F 60 °F  
Max Temperature 72 °F 67 °F 79 °F (2006)
Min Temperature 60 °F 54 °F 52 °F (2010)
Degree Days  
Heating Degree Days 0    
Month to date heating degree days 56  
Since 1 June heating degree days 168  
Since 1 July heating degree days 56  
Cooling Degree Days 1    
Month to date cooling degree days 6  
Year to date cooling degree days 49  
Since 1 June cooling degree days 7  
Growing Degree Days 16 (Base 50)    
Moisture  
Dew Point 57 °F    
Average Humidity 74    
Maximum Humidity 90    
Minimum Humidity 57    
Precipitation  
Precipitation T in - 0.00 in (2015)
Month to date precipitation 0.01  
Year to date precipitation 7.40  
Since 1 July precipitation 0.01  
Sea Level Pressure  
Sea Level Pressure 30.00 in    
Wind  
Wind Speed 5 mph (WSW)    
Max Wind Speed 18 mph    
Max Gust Speed 24 mph    
Visibility 10 miles    
Events      
T = Trace of Precipitation, MM = Missing Value Source: NWS Daily Summary

Daily Weather History Graph

Daily Weather History Graph

Search for Another Location

Airport or City:

Trip Planner

Search our weather history database for the weather conditions in past years. The results will help you decide how hot, cold, wet, or windy it might be!

Date:

Astronomy

Jul. 19, 2014 Rise Set
Actual Time 6:03 AM PDT 8:23 PM PDT
Civil Twilight 5:34 AM PDT 8:52 PM PDT
Nautical Twilight 4:57 AM PDT 9:29 PM PDT
Astronomical Twilight 4:17 AM PDT 10:08 PM PDT
Moon 12:36 AM PDT (7/19) 2:14 PM PDT (7/19)
Length of Visible Light 15h 18m
Length of Day
14h 19m
Last Quarter, 43% of the Moon is Illuminated
Jul 19
Last Quarter
Jul 26
New
Aug 3
First Quarter
Aug 10
Full
Aug 17
Last Quarter

Hourly Weather History & Observations

Time (PDT) Temp. Dew Point Humidity Pressure Visibility Wind Dir Wind Speed Gust Speed Precip Events Conditions
12:08 AM 60.8 °F 55.4 °F 82% 30.00 in 10.0 mi Calm Calm - N/A   Mostly Cloudy
12:46 AM 60.8 °F 55.4 °F 82% 29.99 in 10.0 mi Calm Calm - N/A   Overcast
12:54 AM 61.0 °F 55.9 °F 83% 30.02 in 10.0 mi Calm Calm - N/A   Overcast
1:54 AM 61.0 °F 57.0 °F 87% 30.01 in 10.0 mi Calm Calm - N/A   Overcast
2:26 AM 60.8 °F 57.2 °F 88% 29.97 in 10.0 mi Calm Calm - N/A   Overcast
2:54 AM 61.0 °F 57.0 °F 87% 29.99 in 10.0 mi Calm Calm - N/A   Overcast
3:54 AM 61.0 °F 57.0 °F 87% 29.99 in 10.0 mi Calm Calm - N/A   Overcast
4:54 AM 61.0 °F 55.9 °F 83% 29.99 in 10.0 mi Calm Calm - N/A   Overcast
5:54 AM 60.1 °F 55.9 °F 86% 30.00 in 10.0 mi South 3.5 mph - N/A   Overcast
6:54 AM 61.0 °F 55.9 °F 83% 30.01 in 10.0 mi Calm Calm - N/A   Overcast
7:54 AM 61.0 °F 55.9 °F 83% 30.01 in 10.0 mi NE 3.5 mph - N/A   Overcast
8:54 AM 62.1 °F 55.9 °F 80% 30.02 in 10.0 mi ESE 3.5 mph - N/A   Overcast
9:54 AM 64.0 °F 55.9 °F 75% 30.02 in 10.0 mi Calm Calm - N/A   Mostly Cloudy
10:06 AM 66.2 °F 57.2 °F 73% 29.98 in 10.0 mi NNW 4.6 mph - N/A   Scattered Clouds
10:54 AM 64.9 °F 55.9 °F 73% 30.01 in 10.0 mi NW 8.1 mph - N/A   Partly Cloudy
11:54 AM 69.1 °F 57.0 °F 65% 30.01 in 10.0 mi SW 10.4 mph - N/A   Clear
12:54 PM 70.0 °F 55.9 °F 61% 30.01 in 10.0 mi SW 13.8 mph - N/A   Clear
1:54 PM 71.1 °F 55.9 °F 59% 30.00 in 10.0 mi WSW 11.5 mph - N/A   Clear
2:54 PM 71.1 °F 57.0 °F 61% 30.00 in 10.0 mi SW 15.0 mph 21.9 mph N/A   Clear
3:54 PM 71.1 °F 57.0 °F 61% 30.00 in 10.0 mi SW 16.1 mph 21.9 mph N/A   Clear
4:54 PM 69.1 °F 57.0 °F 65% 30.00 in 10.0 mi WSW 12.7 mph - N/A   Clear
5:54 PM 66.0 °F 55.9 °F 70% 30.01 in 10.0 mi SW 6.9 mph - N/A   Scattered Clouds
6:54 PM 64.0 °F 57.0 °F 78% 30.00 in 10.0 mi NW 6.9 mph - N/A   Scattered Clouds
8:01 PM 62.6 °F 57.2 °F 82% 29.98 in 10.0 mi NW 5.8 mph - N/A   Mostly Cloudy
8:36 PM 62.6 °F 57.2 °F 82% 29.97 in 10.0 mi West 4.6 mph - N/A   Scattered Clouds
8:54 PM 62.1 °F 57.0 °F 84% 30.00 in 10.0 mi Calm Calm - N/A   Scattered Clouds
9:03 PM 62.6 °F 57.2 °F 82% 29.97 in 10.0 mi Calm Calm - N/A   Mostly Cloudy
9:16 PM 62.6 °F 57.2 °F 82% 29.97 in 10.0 mi WNW 3.5 mph - N/A   Scattered Clouds
9:54 PM 62.1 °F 57.0 °F 84% 30.01 in 10.0 mi Calm Calm - N/A   Clear
10:54 PM 62.1 °F 57.0 °F 84% 29.99 in 10.0 mi Calm Calm - N/A   Clear
11:54 PM 62.1 °F 57.0 °F 84% 29.99 in 10.0 mi Calm Calm - N/A   Clear